Location: Newark
(50.0336°N, 22.0047°E)
Time: 02:02:13
(UTC+00:00)

Envisat - Pass Details

Date: 30 January 2020
Orbit: 764 x 766 km, 98.1° (Epoch: 25 February)

Event Time Altitude Azimuth Distance (km) Brightness Sun altitude
Rises 04:44:00 0° 19° (NNE) 3,245 6.3 -13.7°
Reaches altitude 10° 04:46:27 10° 27° (NNE) 2,314 5.7 -13.4°
Maximum altitude 04:51:15 41° 97° (E) 1,108 4.5 -12.6°
Drops below altitude 10° 04:56:01 10° 167° (SSE) 2,296 5.8 -11.9°
Sets 04:58:26 0° 175° (S) 3,217 6.5 -11.5°
